User: anonymous   Login
Location: Meriden
(44.0740°N, 93.3870°W)
Time: 00:30:53
(UTC-05:00)
Language:

AO-27 - Orbit

View from above orbital plane
View from above orbital plane
View from above satellite
View from above satellite

Ground track
Ground track

The orbit data is extracted from the following two-line orbital elements,

1 22825U 93061C   17112.84645014 +.00000027 +00000-0 +28190-4 0  9995
2 22825 098.8067 077.7648 0009229 128.2908 231.9105 14.29993154229225
Epoch (UTC): 22 April 2017 20:18:53
Eccentricity: 0.0009229
inclination: 98.8067°
perigee height: 785 km
apogee height: 798 km
right ascension of ascending node: 77.7648°
argument of perigee: 128.2908°
revolutions per day: 14.29993154
mean anomaly at epoch: 231.9105°
orbit number at epoch: 22922

The dashed part of the orbit path shows where the satellite is in the earth's shadow,  

DLR